Hourly Weather Roundup
Issued by NWS Central Illinois

Home | Current Version | Previous Version | Text Only | Print | Product List | Glossary On
Versions: 1 2 3 4 5 6 7 8 9 10 11 12 13 14 15 16 17 18 19 20 21 22 23 24 25 26 27 28 29 30 31 32 33 34 35 36 37 38 39 40 41 42 43 44 45 46 47 48 49 50
000
NZUS43 KILX 171610
HWRILX

AREA WEATHER ROUNDUP
NATIONAL WEATHER SERVICE, LINCOLN IL
1100 AM CDT THU APR 17 2014


CITY           SKY/WX    TMP DP  RH WIND       PRES   REMARKS
BLOOMINGTON    SUNNY     54  33  44 W12       30.23R
CHAMPAIGN      SUNNY     60  34  37 SW15G28   30.24R
DANVILLE       SUNNY     59  34  38 SW17G23   30.22R
DECATUR          N/A     57  36  45 SW16      30.24S
FLORA          NOT AVBL
GALESBURG      CLOUDY    45  37  74 W12       30.24R
JACKSONVILLE   PTSUNNY   54  35  49 W10G16    30.25R
LACON          MOSUNNY   51  38  62 W9        30.21R
LAWRENCEVILLE  SUNNY     60  37  42 S12       30.31S
LITCHFIELD     PTSUNNY   56  37  49 CALM      30.25R
$$


CITY           SKY/WX    TMP DP  RH WIND       PRES   REMARKS
LINCOLN        MOSUNNY   59  34  39 W5        30.23R
MACOMB         CLOUDY    46  36  68 W8G16     30.27R
MATTOON        SUNNY     58  36  43 S15G23    30.25S
MT CARMEL AP   SUNNY     61  37  41 S12       30.31R
OLNEY-NOBLE AP SUNNY     59  34  38 S10G16    30.29S
PARIS          SUNNY     60  37  41 SW15G24   30.28R
PEORIA         PTSUNNY   52  37  56 W8        30.23R
PONTIAC        MOSUNNY   55  36  47 SW13G20   30.22R
RANTOUL        SUNNY     58  34  39 SW16G22   30.24S
ROBINSON       SUNNY     62  36  37 SW10G21   30.30S
SPRINGFIELD    MOSUNNY   58  33  39 W14       30.24R
TAYLORVILLE    MOSUNNY   54  36  50 SW13      30.25R
$$

...REGIONAL REPORTS...


CITY           SKY/WX    TMP DP  RH WIND       PRES   REMARKS
CHICAGO O`HARE MOSUNNY   54  33  45 SW18      30.16R
KANKAKEE       SUNNY     56  36  47 SW17      30.22S
MOLINE         CLOUDY    45  34  65 W12       30.23R
MOUNT VERNON   SUNNY     63  37  39 S15       30.29S
PITTSFIELD     CLOUDY    51  38  62 NW7       30.26R
QUINCY         CLOUDY    47  36  65 NW9       30.26R
ROCKFORD       CLOUDY    47  36  65 W9G20     30.20R
$$


CITY           SKY/WX    TMP DP  RH WIND       PRES   REMARKS
BURLINGTON     CLOUDY    43  34  70 NW8       30.25R
CEDAR RAPIDS   CLOUDY    39  30  70 NW14      30.24R WCI  31
DES MOINES     CLOUDY    38  27  64 NW14      30.31R WCI  30
KIRKSVILLE     CLOUDY    42  32  67 NW8       30.29R
OTTUMWA        CLOUDY    39  30  70 NW16      30.28R WCI  30
ST LOUIS       CLOUDY    59  34  39 S7        30.26R
$$


CITY           SKY/WX    TMP DP  RH WIND       PRES   REMARKS
TERRE HAUTE    SUNNY     59  33  37 SW15      30.29R
EVANSVILLE     SUNNY     60  38  43 SW14G24   30.34S
INDIANAPOLIS   PTSUNNY   59  31  34 SW15      30.29F
LAFAYETTE      SUNNY     59  31  34 SW10      30.25R
MADISON        CLOUDY    43  36  76 VRB3      30.14R
MILWAUKEE      PTSUNNY   52  36  54 W17G24    30.14R
$$




USA.gov is the U.S. government's official web portal to all federal, state and local government web resources and services.